Overview Statistics Trail Chart Weather Telemetry Raw packets
 

This is the latest recevied weather packets stored in our database for station/object SV9TNF-52. If no packets are shown the sender has not sent any weather packets the latest 10 day(s).

<< 93 94 95 96 97 98 99 >>
Time Temp. Humidity Pressure Rain* Wind** Luminosity Snow
1787987504 26.11° C 59% 1022.4 hPa 0 mm 7.15 m/s, 87° - -
1787987205 26.11° C 60% 1022.4 hPa 0 mm 8.49 m/s, 85° - -
1787986904 26.11° C 58% 1022.4 hPa 0 mm 8.05 m/s, 95° - -
1787986604 26.67° C 58% 1022.4 hPa 0 mm 8.05 m/s, 83° - -
1787986304 26.67° C 57% 1022.4 hPa 0 mm 7.15 m/s, 90° - -
1787986003 26.67° C 56% 1022 hPa 0 mm 4.92 m/s, 99° - -
1787985703 26.67° C 55% 1022 hPa 0 mm 5.36 m/s, 97° - -
1787985404 26.67° C 56% 1022 hPa 0 mm 8.49 m/s, 123° - -
1787985103 26.67° C 57% 1022 hPa 0 mm 9.39 m/s, 66° - -
1787984803 26.67° C 56% 1022 hPa 0 mm 5.81 m/s, 114° - -
1787984503 26.67° C 56% 1021.7 hPa 0 mm 6.71 m/s, 94° - -
1787984203 26.67° C 56% 1021.7 hPa 0 mm 8.49 m/s, 77° - -
1787983903 27.22° C 58% 1021.7 hPa 0 mm 10.28 m/s, 74° - -
1787983603 26.67° C 59% 1021.7 hPa 0 mm 8.05 m/s, 86° - -
1787983303 26.67° C 59% 1021.7 hPa 0 mm 4.47 m/s, 84° - -
1787983003 26.67° C 58% 1022 hPa 0 mm 4.02 m/s, 103° - -
1787982703 27.22° C 60% 1022 hPa 0 mm 4.92 m/s, 75° - -
1787982403 26.67° C 60% 1022 hPa 0 mm 3.58 m/s, 92° - -
1787982103 26.67° C 60% 1022 hPa 0 mm 7.15 m/s, 85° - -
1787981802 26.67° C 62% 1022 hPa 0 mm 4.92 m/s, 90° - -
1787981502 26.67° C 61% 1021.7 hPa 0 mm 4.02 m/s, 92° - -
1787981202 26.67° C 61% 1021.7 hPa 0 mm 6.71 m/s, 108° - -
1787980902 26.67° C 62% 1021.7 hPa 0 mm 2.68 m/s, 88° - -
1787980602 26.67° C 62% 1021.7 hPa 0 mm 3.58 m/s, 67° - -
1787980302 26.67° C 63% 1021.7 hPa 0 mm 4.92 m/s, 79° - -

* Rain latest hour (hover to see other rain measurements)
** Current wind speed in m/s (hover to see current wind gust speed)